Location: Feydey
(46.3431°N, 7.0106°E)
Time: 13:24:06
(UTC+00:00)

Cosmos 1459 Rocket - Visible Passes

Search period start: 22 October 2021 00:00
Search period end: 01 November 2021 00:00
Orbit: 936 x 1000 km, 83.0° (Epoch: 22 October)

Date Brightness Start Highest point End Pass type
(mag) Time Alt. Az. Time Alt. Az. Time Alt. Az.
22 Oct 5.6 17:39:56 12° ENE 17:39:56 12° ENE 17:41:09 10° NE visible
22 Oct 4.4 19:24:21 48° NNE 19:24:21 48° NNE 19:28:38 10° N visible
22 Oct 6.3 21:08:46 17° WNW 21:08:46 17° WNW 21:12:29 10° NNW visible
23 Oct 6.7 04:25:14 10° NNE 04:28:05 13° ENE 04:30:56 10° E visible
23 Oct 4.9 17:56:14 10° SE 18:01:11 24° E 18:05:43 10° NNE visible
23 Oct 4.4 19:39:38 10° SSW 19:45:45 59° WNW 19:51:49 10° N visible
23 Oct 6.8 21:31:51 10° WNW 21:32:23 10° WNW 21:32:56 10° NW visible
24 Oct 6.4 04:47:12 10° NNE 04:51:50 22° ENE 04:56:27 10° ESE visible
24 Oct 4.3 18:18:14 10° SSE 18:23:55 40° E 18:29:33 10° NNE visible
24 Oct 5.3 20:03:33 10° SW 20:09:10 36° WNW 20:14:46 10° N visible
25 Oct 5.6 05:09:52 10° N 05:15:25 36° ENE 05:20:56 10° SE visible
25 Oct 3.8 18:40:52 10° S 18:46:59 67° E 18:53:03 10° NNE visible
25 Oct 6.0 20:28:05 10° WSW 20:32:45 22° WNW 20:37:24 10° NNW visible
26 Oct 7.1 03:51:39 10° NE 03:52:12 10° ENE 03:52:45 10° ENE visible
26 Oct 5.2 17:21:41 10° ESE 17:25:40 18° E 17:29:39 10° NE visible
26 Oct 4.0 19:04:00 10° SSW 19:10:11 75° W 19:16:19 10° N visible
26 Oct 6.6 20:53:39 10° W 20:56:30 13° WNW 20:59:22 10° NNW visible
27 Oct 6.6 04:12:08 10° NNE 04:16:04 17° ENE 04:19:58 10° ESE visible
27 Oct 4.6 17:43:15 10° SE 17:48:31 31° E 17:53:45 10° NNE visible
27 Oct 4.9 19:27:38 10° SSW 19:33:31 45° WNW 19:39:22 10° N visible
28 Oct 6.0 04:34:33 10° N 04:39:44 28° ENE 04:44:53 10° SE visible
28 Oct 4.0 18:05:35 10° SSE 18:11:31 51° E 18:17:23 10° NNE visible
28 Oct 5.7 19:51:51 10° SW 19:57:01 28° WNW 20:02:11 10° NNW visible
29 Oct 5.1 04:57:23 10° N 05:03:12 46° ENE 05:09:02 10° SSE visible
29 Oct 5.4 16:47:30 10° ESE 16:50:23 14° ENE 16:53:16 10° NE visible
29 Oct 3.8 18:28:28 10° S 18:34:38 85° E 18:40:46 10° N visible
29 Oct 6.4 20:16:48 10° WSW 20:20:41 17° WNW 20:24:34 10° NNW visible
30 Oct 6.7 03:37:20 10° NNE 03:40:14 14° ENE 03:43:08 10° E visible
30 Oct 4.2 05:20:28 10° N 05:26:33 78° E 05:32:38 10° SSE visible
30 Oct 4.9 17:08:26 10° SE 17:13:09 24° E 17:17:50 10° NNE visible
30 Oct 4.5 18:51:52 10° SSW 18:57:54 58° WNW 19:03:56 10° N visible
31 Oct 6.3 03:59:20 10° NNE 04:03:59 22° ENE 04:08:38 10° ESE visible
31 Oct 4.3 17:30:26 10° SSE 17:36:04 39° E 17:41:39 10° NNE visible
31 Oct 5.4 19:15:46 10° SW 19:21:20 35° WNW 19:26:52 10° N visible
